Location: Oshawa
(43.9000°N, 78.8670°W)
Time: 20:35:16
(UTC-04:00)

Courier 1B - All Passes

Search period start: 24 October 2014 00:00
Search period end: 02 November 2014 23:00
Orbit: 963 x 1209 km, 28.3° (Epoch: 23 October)

Date Brightness Start Highest point End Pass type
(mag) Time Alt. Az. Time Alt. Az. Time Alt. Az.
24 Oct - 09:36:24 10° SSE 09:37:58 11° SSE 09:39:33 10° SE daylight
24 Oct - 11:25:25 10° SSW 11:30:56 21° SSE 11:36:31 10° ESE daylight
24 Oct - 13:18:09 10° SW 13:24:10 25° S 13:30:11 10° SE daylight
24 Oct - 15:12:33 10° WSW 15:17:20 17° SSW 15:22:03 10° SSE daylight
25 Oct - 10:32:21 10° SSW 10:37:20 19° SSE 10:42:25 10° ESE daylight
25 Oct - 12:24:31 10° SW 12:30:31 25° S 12:36:35 10° SE daylight
25 Oct - 14:18:23 10° WSW 14:23:45 20° SSW 14:29:04 10° SSE daylight
26 Oct - 09:39:35 10° SSW 09:43:47 16° SSE 09:48:04 10° SE daylight
26 Oct - 11:31:01 10° SW 11:36:53 24° S 11:42:50 10° SE daylight
26 Oct - 13:24:26 10° WSW 13:30:07 22° S 13:35:50 10° SE daylight
26 Oct - 15:20:19 10° SW 15:23:10 12° SSW 15:26:00 10° S daylight
27 Oct - 08:47:23 10° S 08:50:17 13° SSE 08:53:14 10° SE daylight
27 Oct - 10:37:42 10° SW 10:43:15 23° S 10:48:58 10° ESE daylight
27 Oct - 12:30:38 10° SW 12:36:29 24° S 12:42:25 10° SE daylight
27 Oct - 14:25:26 10° SW 14:29:37 15° SSW 14:33:48 10° SSE daylight
28 Oct - 09:44:33 10° SSW 09:49:40 20° SSE 09:54:57 10° ESE daylight
28 Oct - 11:37:00 10° SW 11:42:51 24° S 11:48:50 10° SE daylight
28 Oct - 13:31:08 10° WSW 13:36:02 18° SSW 13:40:59 10° SSE daylight
29 Oct - 08:51:40 10° SSW 08:56:08 17° SSE 09:00:45 10° SE daylight
29 Oct - 10:43:30 10° SW 10:49:13 24° S 10:55:08 10° SE daylight
29 Oct - 12:37:07 10° WSW 12:42:26 20° SSW 12:47:51 10° SSE daylight
30 Oct - 07:59:09 10° S 08:02:39 14° SSE 08:06:14 10° SE daylight
30 Oct - 09:50:09 10° SW 09:55:38 23° S 10:01:19 10° SE daylight
30 Oct - 11:43:18 10° SW 11:48:49 22° S 11:54:29 10° SE daylight
30 Oct - 13:38:45 10° SW 13:41:54 13° SSW 13:45:05 10° S daylight
31 Oct - 07:07:35 10° SSE 07:09:12 11° SSE 07:10:50 10° SE visible
31 Oct - 08:56:57 10° SW 09:02:04 21° S 09:07:22 10° SE daylight
31 Oct - 10:49:39 10° SW 10:55:13 23° S 11:00:58 10° SE daylight
31 Oct - 12:44:09 10° SW 12:48:21 16° SSW 12:52:36 10° SSE daylight
01 Nov - 08:03:58 10° SSW 08:08:33 18° SSE 08:13:18 10° SE daylight
01 Nov - 09:56:08 10° SW 10:01:37 23° S 10:07:19 10° SE daylight
01 Nov - 11:50:01 10° SW 11:54:46 18° SSW 11:59:38 10° SSE daylight
02 Nov - 06:11:15 10° SSW 06:15:04 16° SSE 06:19:00 10° SE visible
02 Nov - 08:02:45 10° SW 08:08:03 23° S 08:13:34 10° SE daylight
02 Nov - 09:56:09 10° SW 10:01:12 20° SSW 10:06:24 10° SSE daylight
02 Nov - 11:53:42 10° SSW 11:54:12 10° SSW 11:54:42 10° SSW daylight
